TimeCST,TemperatureF,Dew PointF,Humidity,Sea Level PressureIn,VisibilityMPH,Wind Direction,Wind SpeedMPH,Gust SpeedMPH,PrecipitationIn,Events,Conditions,WindDirDegrees,DateUTC
12:13 AM,8.6,3.2,79,30.11,10.0,NNW,10.4,-,N/A,,Scattered Clouds,340,2012-12-23 06:13:00
12:34 AM,6.8,3.2,85,30.11,10.0,NNW,10.4,-,N/A,,Clear,340,2012-12-23 06:34:00
12:53 AM,6.8,3.2,85,30.12,10.0,NNW,8.1,-,N/A,,Clear,340,2012-12-23 06:53:00
1:14 AM,6.8,3.2,85,30.12,10.0,NNW,6.9,-,N/A,,Clear,340,2012-12-23 07:14:00
1:33 AM,6.8,1.4,79,30.12,10.0,North,9.2,-,N/A,,Clear,350,2012-12-23 07:33:00
1:53 AM,6.8,3.2,85,30.13,10.0,North,9.2,-,N/A,,Clear,350,2012-12-23 07:53:00
2:13 AM,6.8,3.2,85,30.14,10.0,North,9.2,-,N/A,,Mostly Cloudy,350,2012-12-23 08:13:00
2:33 AM,6.8,3.2,85,30.13,10.0,North,9.2,-,N/A,,Scattered Clouds,350,2012-12-23 08:33:00
2:53 AM,8.6,3.2,79,30.13,10.0,North,9.2,-,N/A,,Scattered Clouds,360,2012-12-23 08:53:00
3:13 AM,8.6,5.0,85,30.13,10.0,North,6.9,-,N/A,,Scattered Clouds,360,2012-12-23 09:13:00
3:54 AM,6.8,3.2,85,30.12,10.0,North,5.8,-,N/A,,Scattered Clouds,350,2012-12-23 09:54:00
4:14 AM,8.6,5.0,85,30.13,10.0,NW,4.6,-,N/A,,Clear,320,2012-12-23 10:14:00
4:34 AM,8.6,5.0,85,30.13,10.0,NNW,4.6,-,N/A,,Scattered Clouds,330,2012-12-23 10:34:00
4:53 AM,8.6,5.0,85,30.12,10.0,NNW,5.8,-,N/A,,Scattered Clouds,340,2012-12-23 10:53:00
5:13 AM,8.6,5.0,85,30.13,10.0,NW,5.8,-,N/A,,Clear,310,2012-12-23 11:13:00
5:33 AM,8.6,5.0,85,30.13,10.0,NW,4.6,-,N/A,,Clear,320,2012-12-23 11:33:00
5:53 AM,6.8,3.2,85,30.13,10.0,NNW,5.8,-,N/A,,Clear,340,2012-12-23 11:53:00
6:13 AM,6.8,3.2,85,30.13,10.0,NNW,5.8,-,N/A,,Clear,340,2012-12-23 12:13:00
6:33 AM,6.8,3.2,85,30.14,10.0,NW,6.9,-,N/A,,Clear,320,2012-12-23 12:33:00
6:54 AM,6.8,1.4,79,30.14,10.0,North,5.8,-,N/A,,Clear,350,2012-12-23 12:54:00
7:13 AM,5.0,1.4,85,30.13,10.0,North,6.9,-,N/A,,Clear,360,2012-12-23 13:13:00
7:53 AM,6.8,3.2,85,30.14,10.0,NNW,5.8,-,N/A,,Clear,340,2012-12-23 13:53:00
8:13 AM,6.8,3.2,85,30.14,10.0,North,5.8,-,N/A,,Clear,350,2012-12-23 14:13:00
8:33 AM,6.8,3.2,85,30.14,10.0,North,5.8,-,N/A,,Clear,350,2012-12-23 14:33:00
8:53 AM,6.8,3.2,85,30.13,10.0,NNE,3.5,-,N/A,,Clear,20,2012-12-23 14:53:00
9:13 AM,6.8,3.2,85,30.13,10.0,NNE,3.5,-,N/A,,Clear,20,2012-12-23 15:13:00
9:33 AM,6.8,3.2,85,30.12,10.0,NE,4.6,-,N/A,,Clear,40,2012-12-23 15:33:00
9:54 AM,8.6,5.0,85,30.13,10.0,NE,3.5,-,N/A,,Clear,50,2012-12-23 15:54:00
10:13 AM,8.6,5.0,85,30.12,10.0,NE,6.9,-,N/A,,Clear,40,2012-12-23 16:13:00
10:53 AM,12.2,6.8,79,30.13,10.0,Calm,Calm,-,N/A,,Clear,0,2012-12-23 16:53:00
11:13 AM,12.2,6.8,79,30.12,10.0,East,6.9,-,N/A,Snow,Light Snow,90,2012-12-23 17:13:00
11:33 AM,12.2,6.8,79,30.12,7.0,ESE,6.9,-,N/A,Snow,Light Snow,120,2012-12-23 17:33:00
11:53 AM,12.2,6.8,79,30.11,7.0,East,6.9,-,N/A,Snow,Light Snow,100,2012-12-23 17:53:00
12:13 PM,14.0,6.8,73,30.10,5.0,East,6.9,-,N/A,Snow,Light Snow,90,2012-12-23 18:13:00
12:33 PM,12.2,8.6,85,30.09,10.0,East,6.9,-,N/A,Snow,Light Snow,90,2012-12-23 18:33:00
12:53 PM,14.0,8.6,79,30.09,7.0,East,5.8,-,N/A,Snow,Light Snow,90,2012-12-23 18:53:00
1:13 PM,15.8,8.6,73,30.07,7.0,East,5.8,-,N/A,Snow,Light Snow,80,2012-12-23 19:13:00
1:53 PM,14.0,8.6,79,30.08,10.0,East,4.6,-,N/A,,Scattered Clouds,100,2012-12-23 19:53:00
2:13 PM,14.0,8.6,79,30.09,10.0,Calm,Calm,-,N/A,,Clear,0,2012-12-23 20:13:00
2:33 PM,15.8,8.6,73,30.09,10.0,Calm,Calm,-,N/A,Snow,Light Snow,0,2012-12-23 20:33:00
2:53 PM,15.8,8.6,73,30.08,10.0,ENE,6.9,-,N/A,,Scattered Clouds,60,2012-12-23 20:53:00
3:14 PM,15.8,8.6,73,30.10,10.0,Calm,Calm,-,N/A,,Clear,0,2012-12-23 21:14:00
3:34 PM,15.8,8.6,73,30.10,10.0,North,4.6,-,N/A,,Scattered Clouds,10,2012-12-23 21:34:00
3:53 PM,14.0,8.6,79,30.12,10.0,NNW,4.6,-,N/A,,Scattered Clouds,330,2012-12-23 21:53:00
4:14 PM,12.2,8.6,85,30.11,10.0,North,4.6,-,N/A,,Scattered Clouds,350,2012-12-23 22:14:00
4:33 PM,12.2,8.6,85,30.11,10.0,North,4.6,-,N/A,,Clear,360,2012-12-23 22:33:00
4:53 PM,12.2,8.6,85,30.09,10.0,NE,3.5,-,N/A,,Scattered Clouds,40,2012-12-23 22:53:00
5:13 PM,12.2,8.6,85,30.08,10.0,ENE,3.5,-,N/A,,Clear,60,2012-12-23 23:13:00
5:33 PM,10.4,6.8,85,30.09,10.0,NNE,3.5,-,N/A,,Clear,20,2012-12-23 23:33:00
5:54 PM,10.4,6.8,85,30.08,10.0,NNE,4.6,-,N/A,,Clear,30,2012-12-23 23:54:00
6:14 PM,12.2,6.8,79,30.08,10.0,NNE,3.5,-,N/A,,Clear,30,2012-12-24 00:14:00
6:33 PM,10.4,6.8,85,30.07,10.0,NE,4.6,-,N/A,,Scattered Clouds,40,2012-12-24 00:33:00
6:53 PM,12.2,6.8,79,30.06,10.0,NE,4.6,-,N/A,,Scattered Clouds,40,2012-12-24 00:53:00
7:13 PM,10.4,6.8,85,30.05,10.0,NE,4.6,-,N/A,,Scattered Clouds,50,2012-12-24 01:13:00
7:33 PM,8.6,6.8,92,30.05,10.0,NNE,4.6,-,N/A,,Scattered Clouds,20,2012-12-24 01:33:00
7:53 PM,10.4,6.8,85,30.06,10.0,NNW,4.6,-,N/A,,Mostly Cloudy,340,2012-12-24 01:53:00
8:14 PM,12.2,8.6,85,30.04,10.0,NNE,4.6,-,N/A,,Overcast,20,2012-12-24 02:14:00
8:33 PM,12.2,8.6,85,30.04,10.0,NNE,4.6,-,N/A,,Overcast,20,2012-12-24 02:33:00
8:53 PM,14.0,8.6,79,30.04,10.0,North,4.6,-,N/A,,Overcast,10,2012-12-24 02:53:00
9:14 PM,15.8,10.4,79,30.05,10.0,North,3.5,-,N/A,,Overcast,360,2012-12-24 03:14:00
9:33 PM,15.8,10.4,79,30.06,10.0,NNW,3.5,-,N/A,,Overcast,340,2012-12-24 03:33:00
9:53 PM,15.8,10.4,79,30.06,10.0,NW,3.5,-,N/A,,Overcast,310,2012-12-24 03:53:00
10:13 PM,15.8,10.4,79,30.05,10.0,WNW,4.6,-,N/A,,Overcast,300,2012-12-24 04:13:00
10:33 PM,15.8,10.4,79,30.05,10.0,WNW,3.5,-,N/A,,Overcast,300,2012-12-24 04:33:00
10:53 PM,15.8,10.4,79,30.04,10.0,NNW,4.6,-,N/A,,Overcast,330,2012-12-24 04:53:00
11:13 PM,15.8,10.4,79,30.04,10.0,NNW,5.8,-,N/A,,Overcast,340,2012-12-24 05:13:00
11:33 PM,15.8,10.4,79,30.05,10.0,NNW,5.8,-,N/A,,Overcast,330,2012-12-24 05:33:00
11:53 PM,15.8,10.4,79,30.05,10.0,NNW,6.9,-,N/A,,Overcast,330,2012-12-24 05:53:00